This is the latest recevied weather packets stored in our database for station/object K8JCL-13. If no packets are shown the sender has not sent any weather packets the latest 10 day(s).
| Time | Temp. | Humidity | Pressure | Rain* | Wind** | Luminosity | Snow |
|---|---|---|---|---|---|---|---|
| 1777742404 | 10° C | 48% | 1018.4 hPa | 0 mm | - | 808 W/m² | - |
| 1777742100 | 10° C | 48% | 1018.1 hPa | 0 mm | - | 781 W/m² | - |
| 1777741798 | 10° C | 47% | 1018.3 hPa | 0 mm | - | 760 W/m² | - |
| 1777741494 | 10° C | 46% | 1018.5 hPa | 0 mm | - | 767 W/m² | - |
| 1777741190 | 9.44° C | 49% | 1018.5 hPa | 0 mm | - | 731 W/m² | - |
| 1777740888 | 10° C | 49% | 1018.3 hPa | 0 mm | - | 127 W/m² | - |
| 1777740585 | 10° C | 46% | 1018.5 hPa | 0 mm | - | 381 W/m² | - |
| 1777740280 | 8.89° C | 50% | 1018.5 hPa | 0 mm | - | 725 W/m² | - |
| 1777739977 | 10° C | 49% | 1018.5 hPa | 0 mm | - | 194 W/m² | - |
| 1777739673 | 10° C | 52% | 1018.3 hPa | 0 mm | - | 741 W/m² | - |
| 1777739371 | 10° C | 48% | 1018.8 hPa | 0 mm | - | 582 W/m² | - |
| 1777739068 | 8.89° C | 49% | 1018.7 hPa | 0 mm | - | 737 W/m² | - |
| 1777738765 | 9.44° C | 50% | 1018.6 hPa | 0 mm | - | 747 W/m² | - |
| 1777738461 | 10° C | 53% | 1018.8 hPa | 0 mm | - | 722 W/m² | - |
| 1777738159 | 9.44° C | 54% | 1018.8 hPa | 0 mm | - | 708 W/m² | - |
| 1777737857 | 9.44° C | 51% | 1018.8 hPa | 0 mm | - | 661 W/m² | - |
| 1777737556 | 8.89° C | 54% | 1019.1 hPa | 0 mm | - | 658 W/m² | - |
| 1777737254 | 8.89° C | 51% | 1018.8 hPa | 0 mm | - | 644 W/m² | - |
| 1777736949 | 10° C | 48% | 1019 hPa | 0 mm | - | 636 W/m² | - |
| 1777736044 | 8.89° C | 52% | 1018.8 hPa | 0 mm | - | 611 W/m² | - |
| 1777735740 | 8.89° C | 51% | 1018.4 hPa | 0 mm | - | 603 W/m² | - |
| 1777735438 | 8.89° C | 52% | 1018.8 hPa | 0 mm | - | 594 W/m² | - |
| 1777735136 | 8.89° C | 53% | 1018.8 hPa | 0 mm | - | 585 W/m² | - |
| 1777734831 | 8.89° C | 53% | 1018.7 hPa | 0 mm | - | 575 W/m² | - |
| 1777734530 | 8.33° C | 51% | 1018.7 hPa | 0 mm | - | 564 W/m² | - |
* Rain latest hour (hover to see other rain measurements)
** Current wind speed in m/s (hover to see current wind gust speed)